Home > Time Zones > World Clock > Weather > Qatar > Doha > Past weeks

Flag for Qatar Weather past 2 weeks in Doha, Qatar

Now
84 °F

Duststorm.


Feels Like: 83 °F
Forecast: 75 / 91 °F
Wind: 20 mph from Northwest

Location: Doha International Airport

Current Time: Apr 25, 2015 at 3:47:06 PM

Latest Report: Apr 25, 2015 at 3:00 PM


Visibility: 3 mi

Pressure: 29.86 "Hg

Humidity: 35%

Dew point: 54 °F

Location of DohaLocation

Historic Weather in Doha — Graph

°F

Doha temperature yesterday

Maximum temperature yesterday: 109 °F (at 1:00 PM)
Minimum temperature yesterday: 82 °F (at 12:00 AM)
Average temperature yesterday: 90 °F

Past Weeks' High & Low Weather Summary

 TemperatureHumidityPressure
High109 °F (Apr 24, 1:00 PM)83% (Apr 15, 11:30 PM)30.04 "Hg (Apr 15, 11:30 PM)
Low72 °F (Apr 15, 1:00 AM)8% (Apr 24, 1:00 PM)27.13 "Hg (Apr 17, 4:30 AM)
Average84 °F36%29.87 "Hg
* Reported Apr 10 2:00 PM — Apr 25 2:00 PM, Doha, Weather by CustomWeather, © 2015

Note: Actual official high and low records may vary slightly from our data, if they occured in-between our weather recording intervals... More about our weather records

Advertising

Doha weather history for previous 24 hours

 ConditionsComfort  
Time TempWeatherWind HumidityBarometerVisibility
2:00 PM
Sat, Apr 25
84 °FDuststorm.20 mph35%29.86 "Hg2 mi
1:00 PM84 °FDuststorm.21 mph37%29.89 "Hg2 mi
12:00 PM84 °FDuststorm.21 mph35%29.89 "Hg2 mi
11:30 AM84 °FDuststorm.20 mph35%29.92 "Hg3 mi
11:00 AM84 °FDuststorm.20 mph37%29.92 "Hg3 mi
10:00 AM84 °FDuststorm.18 mph37%29.92 "Hg3 mi
9:00 AM82 °FClear.18 mph37%29.92 "Hg4 mi
8:00 AM79 °FClear.20 mph42%29.92 "Hg4 mi
7:00 AM77 °FClear.22 mph42%29.89 "Hg6 mi
6:30 AM77 °FClear.23 mph44%29.89 "Hg6 mi
6:00 AM77 °FSunny.23 mph47%29.86 "Hg10 mi
5:00 AM77 °FClear.22 mph47%29.86 "Hg4 mi
4:00 AM77 °FClear.24 mph51%29.86 "Hg4 mi
3:00 AM77 °FLow level haze.25 mph51%29.83 "Hg3 mi
2:30 AM79 °FLow level haze.25 mph48%29.83 "Hg3 mi
2:00 AM79 °FLow level haze.24 mph48%29.83 "Hg3 mi
1:30 AM84 °FLow level haze.10 mph43%29.83 "Hg3 mi
1:00 AM79 °FLow level haze.20 mph54%29.83 "Hg3 mi
12:00 AM81 °FClear.18 mph51%29.83 "Hg4 mi
11:00 PM
Fri, Apr 24
82 °FClear.14 mph55%29.83 "Hg5 mi
10:30 PM84 °FClear.14 mph58%29.83 "Hg5 mi
10:00 PM86 °FClear.13 mph55%29.83 "Hg4 mi
9:00 PM88 °FClear.7 mph33%29.83 "Hg4 mi
8:00 PM90 °FClear.3 mph36%29.80 "Hg4 mi
7:00 PM93 °FDuststorm.6 mph21%29.77 "Hg3 mi
6:00 PM93 °FDuststorm.6 mph23%29.77 "Hg3 mi
5:00 PM97 °FDuststorm.8 mph23%29.74 "Hg3 mi
4:00 PM102 °FDuststorm.12 mph11%29.74 "Hg3 mi
3:00 PM106 °FDuststorm.12 mph9%29.77 "Hg3 mi
Weather by CustomWeather, © 2015

See weather overviewHow to use our weather pages